Tracking 35237 objects as of 5-Sep-2026
HD Live streaming from Space Station
objects crossing your sky now

FLOCK 4V 16


FLOCK 4V 16 is no longer on orbit
FLOCK 4V 16 is classified as:


NORAD ID: 46527
Int'l Code: 2020-061BD
Launch date: September 3, 2020
Source: United States (US)
Launch site: FRENCH GUIANA (FRGUI)
Decay date: 2024-02-28
Your satellite tracking list
Your tracking list is empty




NASA's NSSDC Master Catalog

Two Line Element Set (TLE):
1 46527U 20061BD  24059.50081478  .12734574  24604-5  11204-2 0  9990
2 46527  97.2881 143.3846 0011717 279.9878  80.0098 16.39080848190403
Source of the keplerian elements: AFSPC